SCP
0 0 0 0 0 0 0 0 0 0 0 0 0 0 0 0 0 0 0 0 0 0 0 0 0 0 0 0 0 0 0 0 0 0 0 0 1 1 1 1 1 1 1
0 0 0 0 0 0 0 0 0 0 0 0 0 0 0 0 0 0 0 0 0 0 0 0 0 0 0 0 0 0 0 0 0 0 0 0 1 1 1 1 1 1 1
0 0 0 0 0 0 0 0 0 0 0 0 0 0 0 0 0 0 0 0 0 0 0 0 0 0 0 0 0 0 0 0 0 0 0 0 1 1 1 1 1 1 1
0 0 0 0 0 0 0 0 0 0 0 0 0 0 0 0 0 0 0 0 0 0 0 0 0 0 0 0 0 0 0 0 0 0 0 0 0 1 1 1 1 1 1
0 0 0 0 0 0 0 0 0 0 0 0 0 0 0 0 0 0 0 0 0 0 0 0 0 0 0 0 0 0 0 0 0 0 0 0 1 1 1 1 1 1 1
0 0 0 0 0 0 0 0 0 0 0 0 0 0 0 0 0 0 0 0 0 0 0 0 0 0 0 0 0 0 0 0 0 0 0 0 0 1 1 1 1 0 0
0 0 0 0 0 0 0 0 0 0 0 0 0 0 0 0 0 0 0 0 0 0 0 0 0 0 0 0 0 0 0 0 0 0 0 0 0 0 0 0 0 0 0
0 0 0 0 0 0 0 0 0 0 0 0 0 0 0 0 0 0 0 0 0 0 0 0 0 0 0 0 0 0 0 0 0 0 0 0 0 0 0 0 0 0 0
0 0 0 0 0 0 0 0 0 0 0 0 0 0 0 0 0 0 0 0 0 0 0 0 0 0 0 0 0 0 0 0 0 0 0 0 0 0 0 0 0 0 0
0 0 0 0 0 0 0 0 0 0 0 0 0 0 0 0 0 0 0 0 0 0 0 0 0 0 0 0 0 0 0 0 0 0 0 0 0 0 0 0 0 0 0
0 0 0 0 0 0 0 0 0 0 0 0 0 0 0 0 0 0 0 0 0 0 0 0 0 0 0 0 0 0 0 0 0 0 0 0 0 0 0 0 0 0 0
0 0 0 0 0 0 0 0 0 0 0 0 0 0 0 0 0 0 0 0 0 0 0 0 0 0 0 0 0 0 0 0 0 0 0 0 0 0 0 0 0 0 0
0 0 0 0 0 0 0 0 0 0 0 0 0 0 0 0 0 0 0 0 0 0 0 0 0 0 0 0 0 0 0 0 0 0 0 0 0 0 0 0 0 0 0
0 0 0 0 0 0 0 0 0 0 0 0 0 0 0 0 0 0 0 0 0 0 0 0 0 0 0 0 0 0 0 0 0 0 0 0 0 0 0 0 0 0 0
0 0 0 0 0 0 0 0 0 0 0 0 0 0 0 0 0 0 0 0 0 0 0 0 0 0 0 0 0 0 0 0 0 0 0 0 0 0 0 0 0 0 0
0 0 0 0 0 0 0 0 0 0 0 0 0 0 0 0 0 0 0 0 0 0 0 0 0 0 0 0 0 0 0 0 0 0 0 0 0 0 0 0 0 0 0
0 0 0 0 0 0 0 0 0 0 0 0 0 0 0 0 0 0 0 0 0 0 0 0 0 0 0 0 0 0 0 0 0 0 0 0 0 0 0 0 0 0 0
0 0 0 0 0 0 0 0 0 0 0 0 0 0 0 0 0 0 0 0 0 0 0 0 0 0 0 0 0 0 0 0 0 0 0 0 0 0 0 0 0 0 0
0 0 0 0 0 0 0 0 0 0 0 0 0 0 0 0 0 0 0 0 0 0 0 0 0 0 0 0 0 0 0 0 0 0 0 0 0 0 0 0 0 0 0
0 0 0 0 0 0 0 0 0 0 0 0 0 0 0 0 0 0 0 0 0 0 0 0 0 0 0 0 0 0 0 0 0 0 0 0 0 0 0 0 0 0 0
0 0 0 0 0 0 0 0 0 0 0 0 0 0 0 0 0 0 0 0 0 0 0 0 0 0 0 0 0 0 0 0 0 0 0 0 0 0 0 0 0 0 0
0 0 0 0 0 0 0 0 0 0 0 0 0 0 0 0 0 0 0 0 0 0 0 0 0 0 0 0 0 0 0 0 0 0 0 0 0 0 0 0 0 0 0
0 0 0 0 0 0 0 0 0 0 0 0 0 0 0 0 0 0 0 0 0 0 0 0 0 0 0 0 0 0 0 0 0 0 0 0 0 0 0 0 0 0 0
0 0 0 0 0 0 0 0 0 0 0 0 0 0 0 0 0 0 0 0 0 0 0 0 0 0 0 0 0 0 0 0 0 0 0 0 0 0 0 0 0 0 0
0 0 0 0 0 0 0 0 0 0 0 0 0 0 0 0 0 0 0 0 0 0 0 0 0 0 0 0 0 0 0 0 0 0 0 0 0 0 0 0 0 0 0
0 0 0 0 0 0 0 0 0 0 0 0 0 0 0 0 0 0 0 0 0 0 0 0 0 0 0 0 0 0 0 0 0 0 0 0 0 0 0 0 0 0 0
Wind_Speed
16 16 16 15 15 15 14 16 16 16 17 18 18 18 17 17 16 14 14 15 14 13 12 12 12 12 9 8 7 7 7 8 10 10 7 5 6 6 5 5 6 6 7
15 15 15 15 15 15 15 16 16 17 16 17 17 17 17 17 16 15 16 15 14 13 13 12 12 10 12 9 7 7 7 8 9 10 7 6 6 6 5 6 6 5 7
15 15 15 15 15 15 16 16 16 16 17 16 17 17 17 17 17 16 17 15 12 11 11 11 11 11 11 10 9 7 6 7 7 8 7 5 3 4 6 6 7 6 7
15 15 15 15 15 15 15 15 16 16 16 16 16 16 16 17 16 17 17 12 10 10 9 10 10 10 11 12 9 8 7 7 6 7 7 5 4 5 6 7 7 6 7
15 15 15 15 15 15 15 15 16 16 16 16 16 15 15 14 14 19 15 11 10 9 9 9 9 12 15 13 10 8 6 4 5 5 6 5 5 6 7 6 8 8 7
14 14 15 15 15 15 16 15 16 16 16 16 15 15 16 13 22 26 19 11 9 9 9 9 9 10 13 15 17 17 14 8 5 4 3 3 4 4 5 6 8 9 5
14 14 15 15 15 16 16 16 16 15 15 15 15 15 15 17 24 26 24 12 9 8 8 9 8 9 11 9 12 15 17 19 15 8 5 4 4 3 2 7 7 8 6
14 14 15 15 16 16 16 16 16 14 14 14 15 15 15 16 23 26 25 12 7 8 8 9 10 9 9 10 8 9 11 14 16 11 9 10 9 7 5 2 7 9 8
15 15 16 16 17 17 17 16 15 14 14 14 14 15 15 16 21 25 24 10 6 7 8 9 10 8 11 11 9 9 10 10 14 20 21 21 24 24 14 5 5 8 5
16 17 17 16 16 16 16 16 14 14 13 13 13 13 14 14 19 23 23 8 7 7 7 8 11 10 11 12 9 9 10 10 10 12 14 17 17 19 22 13 6 4 5
16 17 17 16 16 16 15 14 14 13 13 13 13 12 13 14 17 20 21 10 9 8 7 7 7 11 13 15 13 11 12 10 9 10 10 11 12 12 13 13 12 8 6
16 16 16 16 15 13 15 14 14 13 13 12 12 12 10 11 13 17 20 17 14 9 8 6 6 13 16 17 14 15 15 11 8 8 9 10 10 10 10 12 13 13 12
16 16 16 16 14 14 14 14 13 12 10 10 10 9 9 9 11 16 16 17 16 9 8 12 13 16 15 13 17 17 13 9 8 9 9 9 8 8 8 8 10 11 13
17 16 15 15 14 14 12 11 11 11 11 11 9 8 8 8 9 8 8 9 11 9 7 11 15 17 14 14 13 11 10 10 9 8 8 8 7 7 8 7 6 6 7
16 15 14 13 14 13 12 11 12 11 13 12 9 8 8 8 11 14 11 9 9 8 7 6 7 7 8 8 8 8 8 8 8 8 8 7 7 8 8 7 7 7 7
14 14 12 12 11 11 11 11 14 15 18 18 17 14 9 11 13 15 15 15 14 12 8 7 8 8 8 8 7 8 8 8 8 7 7 7 7 7 7 7 7 7 7
15 14 12 11 11 11 11 11 11 12 15 16 16 16 14 14 14 14 13 13 14 12 8 7 7 7 7 6 6 6 6 7 6 7 7 7 6 6 6 6 6 6 6
14 13 13 11 11 11 11 11 10 11 10 9 11 14 15 13 13 13 12 9 8 8 7 6 6 6 6 5 5 5 5 5 5 5 5 5 6 5 5 5 5 6 5
12 10 11 10 10 10 10 10 9 10 9 9 8 8 11 9 9 11 9 6 6 6 6 5 5 5 5 5 4 4 4 4 4 4 4 4 4 4 4 4 4 5 4
10 14 14 10 10 10 10 10 9 9 9 8 8 8 6 5 4 5 5 5 5 4 4 4 4 4 4 4 3 3 3 2 2 2 3 2 2 3 3 3 3 3 2
9 10 14 10 9 9 9 9 9 9 8 8 7 9 9 5 4 4 4 3 4 3 3 3 3 3 3 3 3 3 3 3 2 2 2 2 2 2 2 2 2 2 2
8 8 9 9 9 9 9 8 8 8 8 8 7 7 10 5 4 4 4 3 3 3 3 3 3 3 3 3 4 4 4 4 3 3 3 3 3 3 3 3 3 3 3
8 9 9 9 8 11 9 8 7 8 8 7 7 6 6 5 5 5 5 4 4 4 4 4 5 4 4 4 4 5 5 5 5 5 5 5 5 5 5 5 6 5 5
8 9 9 9 9 8 8 8 8 7 7 7 7 6 6 6 6 6 6 5 5 5 5 5 6 7 8 7 6 6 6 7 7 6 9 8 7 7 6 6 7 7 7
8 9 9 9 9 9 9 8 8 8 7 7 7 7 7 6 6 6 6 6 7 7 8 8 7 7 9 10 9 8 11 14 13 10 9 9 10 10 9 9 8 8 8
8 9 9 9 10 10 10 9 9 9 8 7 7 7 7 7 7 7 7 7 7 7 8 8 9 10 11 10 11 13 15 16 16 16 11 8 9 9 9 8 10 9 9
Wind_Direction
340 338 336 335 335 333 332 332 331 329 329 328 327 326 326 325 325 321 319 317 319 320 321 321 320 316 305 291 280 270 265 259 258 259 254 246 233 221 192 183 158 150 141
338 335 334 334 334 334 334 333 331 330 329 327 327 326 326 326 325 321 319 315 314 319 324 325 326 328 323 312 298 282 270 260 258 257 243 229 224 210 179 165 147 140 136
335 333 333 334 334 334 333 332 332 330 329 329 328 326 326 326 324 322 319 312 311 319 325 326 328 333 332 326 315 300 288 272 255 254 249 223 210 191 168 148 135 129 131
333 332 333 333 332 331 331 332 332 331 330 330 328 326 326 324 323 326 322 320 322 327 331 330 331 336 336 333 325 315 299 286 268 251 244 221 194 182 165 155 144 138 138
330 329 330 329 328 328 329 331 331 332 331 329 328 328 329 326 329 328 325 328 333 335 336 334 333 343 346 345 345 342 327 304 290 264 242 219 190 178 167 160 148 136 125
325 324 325 326 327 327 327 328 330 331 331 329 329 330 330 330 330 332 339 336 337 339 339 338 338 346 351 352 359 9 13 4 332 302 265 228 187 170 154 153 144 140 130
319 319 321 322 324 324 324 325 328 329 329 328 328 329 329 329 333 334 340 337 340 344 344 342 344 348 357 356 5 16 19 24 27 18 15 15 22 16 145 158 157 146 124
317 318 321 322 321 322 323 324 325 326 326 325 326 328 327 329 334 334 337 333 340 350 348 344 344 348 8 9 13 25 26 25 29 33 31 32 31 20 14 85 115 99 87
320 323 323 322 321 322 322 321 323 324 322 323 324 326 327 329 333 335 340 330 343 351 348 346 347 350 22 23 24 33 34 28 27 39 42 39 38 38 34 55 109 129 114
326 323 322 323 323 322 319 321 321 320 320 322 321 324 326 329 334 337 344 341 348 352 350 346 353 10 38 40 36 38 38 31 28 32 36 35 35 35 37 34 29 97 108
324 322 323 325 324 320 321 321 320 320 320 320 321 324 327 332 336 340 349 357 353 352 349 347 359 31 54 55 51 48 45 38 36 39 40 37 37 36 37 38 36 42 70
325 325 327 327 326 323 324 324 324 323 321 321 322 325 330 333 338 341 350 1 2 354 347 347 20 51 61 58 53 48 45 41 40 43 43 39 37 37 41 46 49 53 56
327 329 329 329 329 329 329 329 328 327 324 321 321 325 329 333 337 343 352 0 4 6 8 30 54 58 59 54 49 46 41 38 39 43 44 42 38 38 41 51 59 63 61
330 332 333 333 334 337 337 337 336 334 330 329 334 336 335 335 342 349 358 3 5 14 26 37 51 57 56 52 47 43 39 39 39 40 40 40 38 38 38 35 43 52 61
332 335 336 336 340 342 344 343 343 341 343 347 347 344 343 343 355 13 21 17 16 27 33 46 47 47 48 48 46 43 40 38 39 36 36 37 38 40 38 34 39 53 62
336 339 338 342 345 345 342 341 346 348 351 355 357 358 355 1 15 28 29 29 31 37 44 47 48 47 45 42 41 41 38 36 34 35 35 35 35 35 39 39 44 50 57
340 339 340 345 346 344 344 344 344 348 355 1 3 3 9 18 31 35 35 37 39 40 45 45 44 42 41 39 38 38 38 36 31 33 34 31 32 35 37 38 41 48 52
341 343 346 345 345 344 346 347 348 348 351 359 3 6 11 20 31 37 38 40 41 41 39 40 38 36 34 32 30 29 29 30 30 30 32 29 25 28 32 34 37 36 41
343 346 345 345 346 346 348 350 352 352 354 355 358 2 5 12 26 35 33 34 35 35 33 31 29 28 28 24 21 19 16 20 20 13 23 21 17 19 23 23 29 31 27
343 346 349 346 348 350 352 354 354 354 355 356 358 353 355 4 18 23 26 26 27 27 23 21 18 13 11 9 5 1 357 1 3 352 358 359 356 355 359 356 358 360 7
338 338 345 346 351 351 353 353 352 352 354 355 356 358 8 3 1 360 1 4 4 5 3 358 354 349 345 343 337 332 322 320 320 317 313 311 307 299 299 299 296 295 305
333 333 338 342 346 348 350 347 347 347 348 351 348 349 353 349 343 338 337 333 330 327 325 321 319 319 315 312 308 307 301 295 290 282 279 276 269 265 262 260 262 264 264
331 332 335 337 340 341 343 342 341 341 340 340 339 338 337 333 327 320 314 310 307 302 299 295 296 297 295 289 283 282 282 283 280 278 274 269 259 253 249 246 245 249 251
331 332 332 333 335 336 334 333 332 330 328 326 325 323 321 316 308 301 297 293 290 287 285 283 282 286 287 285 279 273 270 272 272 262 255 256 256 254 249 245 245 244 243
335 334 332 333 332 331 328 325 321 318 314 311 309 307 304 299 293 288 284 280 279 276 278 278 276 277 279 280 278 275 277 279 276 268 253 245 245 245 247 248 245 245 241
337 335 333 332 333 332 329 323 318 313 304 298 295 292 290 287 284 281 277 272 271 271 271 270 269 270 274 276 274 275 279 281 281 277 269 251 238 239 240 241 240 240 240